Starlink 37294

operational
NORAD ID: 68560 Int'l Des: 2026-070 Owner: SPXS Country: US Constellation: starlink
LEOCIRCULAR

关于 Starlink 37294

正在加载描述...

实时位置

正在加载3D地球...

即将过境

高度历史

Altitude vs Time

uPlot chart will show altitude changes over time

两行轨道根数

1 68560C 26070T 26093.78868056 .00623280 00000+0 76645-3 0 934
2 68560 53.1620 260.1767 0008621 284.2240 5.4526 16.06801535 10
Epoch: Apr 3, 2026 • Age: 31 hours

当前状态

高度 259.0 km
速度 7.75 km/s
星下点 -22.13°S, 164.76°E
发射日期 Apr 2, 2026
运行时间 1 days
类型 internet

技术详情

分类 Payload
质量 575.00 kg
干质量 530.00 kg
总质量 575.00 kg
长度 0.30 m
直径 4.10 m
跨度 29.00 m
形状 Box + pan
制造商 SPXS
平台类型 Starlink V2MO
阶段状态 In Orbit
所有者/国家 SPXS/US

大型星座

Loading constellations...